sat.trackr.live / text

‹ back to catalog

ONEWEB-0083

NORAD 45435 · 2020-020M

PAYLOAD ACTIVE UNKNOWN

§ Identity

Operator
Country
UK
Launch date
2020-03-21
Launch site
TYMSC
Launch vehicle
Mass (kg)
RCS (m²)

Purposes: comms

External: N2YO · Heavens-Above · Gunter

§ Orbital elements

Epoch: 2026-09-19T23:14:36.530304Z

Period
109.81 min
Inclination
87.8974°
Eccentricity
0.0001802
Mean motion
13.11415148 rev/d
Perigee alt
1,216.3 km
Apogee alt
1,219.1 km
Semi-major
7,595.8 km
B*
1.1282e-3
RAAN
2.2248°
Arg perigee
99.1309°
Mean anomaly
261.0022°
Rev number
31,509

§ Raw data

ONEWEB-00831 45435U 20020M   26262.96847836  .00000413  00000+0  11282-2 0  99972 45435  87.8974   2.2248 0001802  99.1309 261.0022 13.11415148315096

JSON: /api/v1/satellites/45435 · /tle

For live sub-satellite position, see the globe view (requires WebGL).

§ Visibility from observer

Set your observer location to see the next 7 days of passes ≥ 10°. The values pass through the URL so the page stays shareable.

No JS? Fill the form by hand. The geolocation button needs JavaScript.